Location: Downe
(51.3167°N, 0.0500°E)
Time: 09:28:52
(UTC+00:00)

BREEZE-M DEB (TANK) - Pass Details

Date: 17 November 2019
Orbit: 398 x 14925 km, 46.0° (Epoch: 05 December)

Event Time Altitude Azimuth Distance (km) Brightness Sun altitude
Exits shadow 05:40:42 20° 232° (SW) 1,135 4.1 -15.3°
Maximum altitude 05:41:39 23° 203° (SSW) 959 3.9 -15.1°
Drops below altitude 10° 05:43:52 10° 146° (SE) 1,443 5.6 -14.8°
Sets 05:46:04 0° 128° (SE) 2,453 7.4 -14.4°
